GLO1023 SBRJ-SBSP

Flight info

Callsign GLO1023
Flight time N/A
Altitude 34000
Route NAXOP UZ45 IBDAL
Aircraft B737/M-SDE2E3FGHIRWXY/LB1

Departure

Time 2026-05-04 15:39
Airport Santos Dumont Airport (SBRJ)

Arrival

Time N/A
Airport Congonhas–Deputado Freitas Nobre Airport (SBSP)
Time Latitude Longitude Altitude Speed Heading
2026-05-04 15:18 -22.91136 -43.16589 48 ft 0 kts 267°
2026-05-04 15:30 -22.91136 -43.16583 24 ft 3 kts 267°
2026-05-04 15:31 -22.91129 -43.16527 23 ft 4 kts 231°
2026-05-04 15:31 -22.91116 -43.16521 25 ft 4 kts 162°
2026-05-04 15:32 -22.91090 -43.16530 23 ft 0 kts 162°
2026-05-04 15:34 -22.91101 -43.16526 23 ft 3 kts 162°
2026-05-04 15:35 -22.91176 -43.16515 22 ft 8 kts 168°
2026-05-04 15:35 -22.91208 -43.16464 24 ft 9 kts 116°
2026-05-04 15:35 -22.91265 -43.16443 21 ft 10 kts 178°
2026-05-04 15:36 -22.91439 -43.16432 21 ft 14 kts 176°
2026-05-04 15:36 -22.91518 -43.16384 20 ft 13 kts 136°
2026-05-04 15:36 -22.91576 -43.16326 19 ft 9 kts 137°
2026-05-04 15:37 -22.91583 -43.16318 19 ft 0 kts 137°
2026-05-04 15:37 -22.91592 -43.16309 19 ft 3 kts 137°
2026-05-04 15:37 -22.91619 -43.16282 19 ft 7 kts 137°
2026-05-04 15:38 -22.91629 -43.16244 19 ft 2 kts 35°
2026-05-04 15:38 -22.91603 -43.16247 19 ft 5 kts 356°
2026-05-04 15:38 -22.91595 -43.16247 19 ft 7 kts 357°
2026-05-04 15:38 -22.91276 -43.16268 21 ft 94 kts 356°
2026-05-04 15:39 -22.90326 -43.16335 88 ft 172 kts 356°
2026-05-04 15:39 -22.89069 -43.16420 1004 ft 179 kts
2026-05-04 15:39 -22.87143 -43.14907 2824 ft 207 kts 83°
2026-05-04 15:40 -22.87136 -43.13305 3629 ft 221 kts 90°
2026-05-04 15:40 -22.87082 -43.11617 4761 ft 225 kts 85°
2026-05-04 15:40 -22.87183 -43.09900 5748 ft 235 kts 107°
2026-05-04 15:40 -22.87662 -43.08198 6827 ft 239 kts 105°
2026-05-04 15:41 -22.88061 -43.06422 7604 ft 246 kts 108°
2026-05-04 15:41 -22.89005 -43.04915 7939 ft 246 kts 144°
2026-05-04 15:41 -22.90589 -43.04033 8203 ft 280 kts 167°
2026-05-04 15:41 -22.92548 -43.03672 8202 ft 288 kts 182°
2026-05-04 15:42 -22.94456 -43.04210 8210 ft 284 kts 210°
2026-05-04 15:42 -22.96048 -43.05448 8210 ft 280 kts 221°
2026-05-04 15:42 -22.97543 -43.06804 8204 ft 280 kts 222°
2026-05-04 15:42 -22.99028 -43.08168 8196 ft 280 kts 222°
2026-05-04 15:43 -23.00520 -43.09529 8187 ft 279 kts 222°
2026-05-04 15:43 -23.02010 -43.10875 8191 ft 279 kts 221°
2026-05-04 15:43 -23.03505 -43.12218 8193 ft 278 kts 221°
2026-05-04 15:43 -23.04996 -43.13554 8160 ft 278 kts 221°
2026-05-04 15:44 -23.06491 -43.14893 8166 ft 278 kts 221°
2026-05-04 15:44 -23.08001 -43.16224 8339 ft 283 kts 221°
2026-05-04 15:44 -23.09550 -43.17571 9381 ft 284 kts 221°
2026-05-04 15:44 -23.11097 -43.18913 10546 ft 287 kts 221°
2026-05-04 15:45 -23.12708 -43.20316 11106 ft 310 kts 221°
2026-05-04 15:45 -23.14470 -43.21852 11488 ft 335 kts 220°
2026-05-04 15:45 -23.16308 -43.23452 12348 ft 341 kts 220°
2026-05-04 15:45 -23.18169 -43.25072 13342 ft 344 kts 220°
2026-05-04 15:46 -23.20056 -43.26716 14211 ft 350 kts 220°
2026-05-04 15:46 -23.21962 -43.28378 15062 ft 353 kts 221°
2026-05-04 15:46 -23.23882 -43.30052 15999 ft 354 kts 221°
2026-05-04 15:46 -23.25803 -43.31729 16907 ft 355 kts 222°
2026-05-04 15:47 -23.27712 -43.33397 17760 ft 358 kts 222°
2026-05-04 15:47 -23.29666 -43.35104 18607 ft 361 kts 223°
2026-05-04 15:47 -23.31632 -43.36828 19329 ft 364 kts 224°
2026-05-04 15:47 -23.33294 -43.38873 20031 ft 361 kts 240°
2026-05-04 15:48 -23.34326 -43.41352 20794 ft 360 kts 254°
2026-05-04 15:48 -23.34999 -43.43985 21545 ft 363 kts 256°
2026-05-04 15:48 -23.36203 -43.49374 22933 ft 370 kts 257°
2026-05-04 15:49 -23.36811 -43.52109 23609 ft 373 kts 256°
2026-05-04 15:49 -23.37434 -43.54863 24205 ft 377 kts 256°
2026-05-04 15:49 -23.38070 -43.57637 24809 ft 378 kts 256°
2026-05-04 15:49 -23.38716 -43.60425 25411 ft 380 kts 256°
2026-05-04 15:50 -23.39368 -43.63226 25976 ft 383 kts 256°
2026-05-04 15:50 -23.40026 -43.66049 26501 ft 386 kts 256°
2026-05-04 15:50 -23.40692 -43.68901 27038 ft 389 kts 256°
2026-05-04 15:50 -23.41350 -43.71727 27576 ft 391 kts 256°
2026-05-04 15:51 -23.42023 -43.74614 28109 ft 394 kts 256°
2026-05-04 15:51 -23.42697 -43.77509 28622 ft 396 kts 256°
2026-05-04 15:51 -23.43376 -43.80430 29110 ft 399 kts 256°
2026-05-04 15:51 -23.44058 -43.83369 29587 ft 402 kts 256°
2026-05-04 15:52 -23.44744 -43.86327 30038 ft 405 kts 256°
2026-05-04 15:52 -23.45435 -43.89304 30539 ft 405 kts 256°
2026-05-04 15:52 -23.46120 -43.92265 31184 ft 400 kts 256°
2026-05-04 15:52 -23.46795 -43.95185 31887 ft 395 kts 256°
2026-05-04 15:53 -23.47460 -43.98075 32505 ft 392 kts 256°
2026-05-04 15:53 -23.48120 -44.00949 33022 ft 391 kts 256°
2026-05-04 15:53 -23.48778 -44.03818 33510 ft 390 kts 257°
2026-05-04 15:53 -23.49436 -44.06685 33954 ft 390 kts 257°
2026-05-04 15:54 -23.50095 -44.09561 34176 ft 392 kts 257°
2026-05-04 15:54 -23.50757 -44.12448 34183 ft 392 kts 257°
2026-05-04 15:54 -23.52071 -44.18185 34187 ft 390 kts 257°
2026-05-04 15:55 -23.53380 -44.23884 34184 ft 390 kts 257°